User: anonymous   Login
Location: Unspecified
(0.0000°N, 0.0000°E)
Time: 01:59:09
(UTC+00:00)
Language:

Transit VE-3 - Orbit

View from above orbital plane
View from above orbital plane
View from above satellite
View from above satellite

Ground track
Ground track

The orbit data is extracted from the following two-line orbital elements,

1   705U 63049C   17147.92629476 +.00000028 +00000-0 +30153-4 0  9995
2   705 089.9164 100.8272 0035727 051.0789 011.7796 13.47303350626830
Epoch (UTC): 27 May 2017 22:13:51
Eccentricity: 0.0035727
inclination: 89.9164°
perigee height: 1055 km
apogee height: 1109 km
right ascension of ascending node: 100.8272°
argument of perigee: 51.0789°
revolutions per day: 13.47303350
mean anomaly at epoch: 11.7796°
orbit number at epoch: 62683

The dashed part of the orbit path shows where the satellite is in the earth's shadow,  

DLR